When you browse on this site, cookies collect data to enhance your experience and personalize the content and advertising you see.
Visit our Privacy Policy to learn more. By continuing to use the site, you agree to this use of cookies and data.
  • In Österreich
  • Länderverzeichnis
  • Für 7 Tage
  • Wassertemperatur
  • Wetterkarte
  • News
  • Widgets
  • user-avatar
    Anmelden

    Stündliche Wetter La-Plata

    Heute, 18 Januar, Samstag

    Zeit Temperatur Niederschläge Wind Luftdruck Luftfeuchtigkeit
    00:00 +21°C° 0 mm 6 m/S 762 mmHg 48%
    01:00 +20°C° 0 mm 5 m/S 762 mmHg 50%
    02:00 +20°C° 0 mm 5 m/S 762 mmHg 53%
    03:00 +20°C° 0 mm 5 m/S 762 mmHg 55%
    04:00 +20°C° 0 mm 5 m/S 762 mmHg 58%
    05:00 +20°C° 0 mm 4 m/S 762 mmHg 60%
    06:00 +21°C° 0 mm 4 m/S 762 mmHg 54%
    07:00 +23°C° 0 mm 5 m/S 762 mmHg 48%
    08:00 +26°C° 0 mm 5 m/S 762 mmHg 42%
    09:00 +28°C° 0 mm 4 m/S 762 mmHg 37%
    10:00 +30°C° 0 mm 4 m/S 762 mmHg 31%
    11:00 +33°C° 0 mm 4 m/S 761 mmHg 26%
    12:00 +33°C° 0 mm 4 m/S 761 mmHg 24%
    13:00 +34°C° 0 mm 4 m/S 760 mmHg 22%
    14:00 +35°C° 0 mm 3 m/S 760 mmHg 21%
    15:00 +35°C° 0 mm 3 m/S 759 mmHg 22%
    16:00 +34°C° 0 mm 3 m/S 759 mmHg 23%
    17:00 +34°C° 0 mm 3 m/S 758 mmHg 24%
    18:00 +31°C° 0 mm 3 m/S 758 mmHg 29%
    19:00 +29°C° 0 mm 3 m/S 758 mmHg 34%
    20:00 +27°C° 0 mm 3 m/S 759 mmHg 39%
    21:00 +26°C° 0 mm 3 m/S 759 mmHg 44%
    22:00 +26°C° 0 mm 3 m/S 759 mmHg 49%
    23:00 +25°C° 0 mm 3 m/S 759 mmHg 55%

    Morgen, 19 Januar, Sonntag

    Zeit Temperatur Niederschläge Wind Luftdruck Luftfeuchtigkeit
    00:00 +25°C° 0 mm 3 m/S 759 mmHg 53%
    01:00 +25°C° 0 mm 3 m/S 759 mmHg 51%
    02:00 +25°C° 0 mm 4 m/S 759 mmHg 50%
    03:00 +25°C° 0 mm 4 m/S 759 mmHg 52%
    04:00 +23°C° 0 mm 4 m/S 759 mmHg 54%
    05:00 +23°C° 0 mm 4 m/S 759 mmHg 56%
    06:00 +26°C° 0 mm 4 m/S 759 mmHg 51%
    07:00 +27°C° 0 mm 4 m/S 759 mmHg 46%
    08:00 +29°C° 0 mm 4 m/S 759 mmHg 41%
    09:00 +32°C° 0 mm 4 m/S 758 mmHg 36%
    10:00 +34°C° 0 mm 3 m/S 758 mmHg 30%
    11:00 +36°C° 0 mm 3 m/S 757 mmHg 24%
    12:00 +36°C° 0 mm 3 m/S 757 mmHg 22%
    13:00 +37°C° 0 mm 3 m/S 756 mmHg 21%
    14:00 +38°C° 0 mm 3 m/S 755 mmHg 19%
    15:00 +38°C° 0 mm 3 m/S 755 mmHg 21%
    16:00 +38°C° 0 mm 4 m/S 755 mmHg 22%
    17:00 +37°C° 0 mm 4 m/S 754 mmHg 24%
    18:00 +35°C° 0 mm 4 m/S 754 mmHg 32%
    19:00 +32°C° 0 mm 5 m/S 755 mmHg 40%
    20:00 +28°C° 0 mm 5 m/S 755 mmHg 49%
    21:00 +28°C° 0 mm 4 m/S 755 mmHg 51%
    22:00 +28°C° 0 mm 4 m/S 755 mmHg 54%
    23:00 +27°C° 0 mm 3 m/S 756 mmHg 56%

    übermorgen, 20 Januar, Montag

    Zeit Temperatur Niederschläge Wind Luftdruck Luftfeuchtigkeit
    00:00 +27°C° 0 mm 3 m/S 755 mmHg 55%
    01:00 +27°C° 0 mm 3 m/S 755 mmHg 55%
    02:00 +27°C° 0 mm 3 m/S 755 mmHg 54%
    03:00 +27°C° 0 mm 3 m/S 755 mmHg 54%
    04:00 +26°C° 0 mm 3 m/S 755 mmHg 55%
    05:00 +26°C° 0 mm 3 m/S 755 mmHg 55%
    06:00 +28°C° 0 mm 3 m/S 755 mmHg 51%
    07:00 +30°C° 0 mm 2 m/S 755 mmHg 46%
    08:00 +32°C° 0 mm 2 m/S 755 mmHg 42%
    09:00 +35°C° 0 mm 2 m/S 755 mmHg 38%
    10:00 +38°C° 0 mm 2 m/S 755 mmHg 34%
    11:00 +40°C° 0 mm 2 m/S 754 mmHg 29%
    12:00 +41°C° 0 mm 2 m/S 754 mmHg 28%
    13:00 +42°C° 0 mm 3 m/S 754 mmHg 26%
    14:00 +43°C° 0 mm 4 m/S 753 mmHg 24%
    15:00 +42°C° 0 mm 4 m/S 753 mmHg 25%
    16:00 +41°C° 0 mm 5 m/S 753 mmHg 26%
    17:00 +39°C° 0 mm 5 m/S 752 mmHg 26%
    18:00 +36°C° 0 mm 5 m/S 752 mmHg 35%
    19:00 +33°C° 0 mm 5 m/S 753 mmHg 45%
    20:00 +30°C° 0 mm 5 m/S 753 mmHg 54%
    21:00 +29°C° 0 mm 5 m/S 754 mmHg 58%
    22:00 +28°C° 0 mm 5 m/S 754 mmHg 63%
    23:00 +27°C° 0 mm 6 m/S 755 mmHg 68%

    21 Januar, Dienstag

    Zeit Temperatur Niederschläge Wind Luftdruck Luftfeuchtigkeit
    00:00 +26°C° 0 mm 5 m/S 755 mmHg 70%
    01:00 +26°C° 0 mm 5 m/S 754 mmHg 72%
    02:00 +25°C° 0 mm 4 m/S 754 mmHg 73%
    03:00 +25°C° 0 mm 5 m/S 754 mmHg 75%
    04:00 +25°C° 0 mm 5 m/S 754 mmHg 77%
    05:00 +23°C° 0 mm 6 m/S 754 mmHg 79%
    06:00 +24°C° 0.1 mm 6 m/S 755 mmHg 75%
    07:00 +27°C° 0.1 mm 6 m/S 755 mmHg 72%
    08:00 +28°C° 0.1 mm 6 m/S 755 mmHg 68%
    09:00 +30°C° 0 mm 6 m/S 755 mmHg 59%
    10:00 +33°C° 0 mm 6 m/S 756 mmHg 51%
    11:00 +36°C° 0 mm 6 m/S 756 mmHg 42%
    12:00 +36°C° 0 mm 6 m/S 755 mmHg 40%
    13:00 +38°C° 0 mm 6 m/S 755 mmHg 37%
    14:00 +38°C° 0 mm 7 m/S 754 mmHg 35%
    15:00 +36°C° 0 mm 7 m/S 754 mmHg 38%
    16:00 +35°C° 0 mm 8 m/S 754 mmHg 41%
    17:00 +33°C° 0 mm 8 m/S 754 mmHg 45%
    18:00 +31°C° 0 mm 8 m/S 755 mmHg 56%
    19:00 +27°C° 0 mm 8 m/S 755 mmHg 68%
    20:00 +23°C° 0 mm 8 m/S 756 mmHg 80%
    21:00 +23°C° 0.1 mm 7 m/S 756 mmHg 81%
    22:00 +23°C° 0.1 mm 7 m/S 757 mmHg 81%
    23:00 +23°C° 0.1 mm 7 m/S 757 mmHg 82%

    22 Januar, Mittwoch

    Zeit Temperatur Niederschläge Wind Luftdruck Luftfeuchtigkeit
    00:00 +23°C° 0 mm 7 m/S 757 mmHg 83%
    01:00 +23°C° 0 mm 6 m/S 757 mmHg 85%
    02:00 +22°C° 0 mm 6 m/S 757 mmHg 86%
    03:00 +22°C° 0.2 mm 5 m/S 757 mmHg 85%
    04:00 +22°C° 0.2 mm 5 m/S 757 mmHg 85%
    05:00 +22°C° 0.2 mm 5 m/S 758 mmHg 84%
    06:00 +23°C° 0.4 mm 5 m/S 758 mmHg 79%
    07:00 +25°C° 0.4 mm 5 m/S 758 mmHg 75%
    08:00 +26°C° 0.4 mm 5 m/S 759 mmHg 70%
    09:00 +27°C° 0.2 mm 5 m/S 759 mmHg 62%
    10:00 +29°C° 0.2 mm 5 m/S 758 mmHg 53%
    11:00 +32°C° 0.2 mm 5 m/S 758 mmHg 45%
    12:00 +32°C° 0 mm 5 m/S 758 mmHg 41%
    13:00 +33°C° 0 mm 5 m/S 757 mmHg 38%
    14:00 +34°C° 0 mm 6 m/S 757 mmHg 34%
    15:00 +33°C° 0 mm 7 m/S 757 mmHg 39%
    16:00 +32°C° 0 mm 8 m/S 757 mmHg 44%
    17:00 +31°C° 0 mm 8 m/S 757 mmHg 48%
    18:00 +28°C° 0 mm 8 m/S 757 mmHg 56%
    19:00 +26°C° 0 mm 8 m/S 758 mmHg 63%
    20:00 +23°C° 0 mm 8 m/S 758 mmHg 70%
    21:00 +23°C° 0 mm 8 m/S 758 mmHg 69%
    22:00 +23°C° 0 mm 8 m/S 759 mmHg 68%
    23:00 +23°C° 0 mm 7 m/S 759 mmHg 67%

    23 Januar, Donnerstag

    Zeit Temperatur Niederschläge Wind Luftdruck Luftfeuchtigkeit
    00:00 +23°C° 0 mm 7 m/S 759 mmHg 68%
    01:00 +22°C° 0 mm 7 m/S 759 mmHg 69%
    02:00 +22°C° 0 mm 7 m/S 759 mmHg 71%
    03:00 +21°C° 0 mm 6 m/S 759 mmHg 73%
    04:00 +21°C° 0 mm 6 m/S 759 mmHg 74%
    05:00 +21°C° 0 mm 6 m/S 759 mmHg 76%
    06:00 +22°C° 0 mm 6 m/S 759 mmHg 72%
    07:00 +23°C° 0 mm 6 m/S 759 mmHg 67%
    08:00 +24°C° 0 mm 6 m/S 759 mmHg 62%
    09:00 +27°C° 0 mm 6 m/S 759 mmHg 56%
    10:00 +28°C° 0 mm 6 m/S 759 mmHg 50%
    11:00 +30°C° 0 mm 6 m/S 758 mmHg 43%
    12:00 +32°C° 0 mm 6 m/S 758 mmHg 38%
    13:00 +33°C° 0 mm 6 m/S 757 mmHg 33%
    14:00 +34°C° 0 mm 6 m/S 756 mmHg 27%
    15:00 +33°C° 0 mm 6 m/S 756 mmHg 32%
    16:00 +32°C° 0 mm 7 m/S 755 mmHg 36%
    17:00 +32°C° 0 mm 7 m/S 754 mmHg 41%
    18:00 +29°C° 0 mm 6 m/S 754 mmHg 50%
    19:00 +27°C° 0 mm 5 m/S 754 mmHg 59%
    20:00 +25°C° 0 mm 5 m/S 755 mmHg 68%
    21:00 +25°C° 0 mm 5 m/S 755 mmHg 65%
    22:00 +26°C° 0 mm 5 m/S 755 mmHg 62%
    23:00 +26°C° 0 mm 5 m/S 756 mmHg 58%
    Mehr zeigen